Simultaneous Nadir Overpasses (SNOs) Predictions

Prediction of SNOs near US between AQUA and NPP Satellite Orbit:

Table of predicted SNOs near US for the next 10.0 days since TLE Epoch: 9/14/2018
Index Date (AQUA) Time (AQUA) AQUA Lat,Lon Date (NPP) Time (NPP) NPP Lat,Lon Distance(km) Time Diff (sec)
1 09/16/2018 10:12:20 27.00,-124.99 09/16/2018 10:05:56 26.80,-125.66 70.34 384
2 09/19/2018 07:19:02 49.90, -76.06 09/19/2018 07:20:38 50.29, -78.15 155.78 96
3 09/19/2018 08:57:55 49.89,-100.78 09/19/2018 09:02:06 50.40,-103.48 200.34 251
4 09/21/2018 18:17:08 49.94, -80.20 09/21/2018 18:10:55 49.69, -81.72 112.64 373
5 09/21/2018 19:56:01 49.94,-104.92 09/21/2018 19:52:23 49.58,-107.04 157.90 218
6 09/21/2018 21:31:10 36.59,-125.00 09/21/2018 21:30:01 36.14,-127.52 231.13 69
7 09/24/2018 09:23:51 22.97,-113.58 09/24/2018 09:16:20 23.03,-113.95 38.64 451




NCC Satellite Simultaneous Nadir Overpasses (SNOs) Prediction Service
